GEC478 NZAA-YSSY

Flight info

Callsign GEC478
Flight time N/A
Altitude 36000
Route VELMO DCT 38S163E DCT PLUGA DCT RIKNI N774 MARLN
Aircraft MD11/H-SDE1E2E3FGHIJ2J3J4J5M1RWXY/LB1D1

Departure

Time 2026-05-07 15:55
Airport Auckland International Airport (NZAA)

Arrival

Time N/A
Airport Sydney Kingsford Smith International Airport (YSSY)
Time Latitude Longitude Altitude Speed Heading
2026-05-07 15:27 -37.00328 174.79846 42 ft 0 kts 258°
2026-05-07 15:36 -37.00325 174.79858 42 ft 4 kts 272°
2026-05-07 15:37 -37.00329 174.79876 41 ft 4 kts 325°
2026-05-07 15:37 -37.00347 174.79893 42 ft 3 kts 322°
2026-05-07 15:37 -37.00358 174.79899 41 ft 4 kts
2026-05-07 15:37 -37.00383 174.79903 41 ft 4 kts 348°
2026-05-07 15:38 -37.00410 174.79909 42 ft 4 kts 351°
2026-05-07 15:38 -37.00437 174.79914 42 ft 4 kts 353°
2026-05-07 15:38 -37.00464 174.79918 43 ft 4 kts 353°
2026-05-07 15:38 -37.00487 174.79920 42 ft 3 kts 343°
2026-05-07 15:39 -37.00507 174.79929 42 ft 4 kts 329°
2026-05-07 15:39 -37.00527 174.79948 41 ft 4 kts 304°
2026-05-07 15:39 -37.00540 174.79977 43 ft 3 kts 300°
2026-05-07 15:39 -37.00543 174.79982 43 ft 0 kts 301°
2026-05-07 15:43 -37.00542 174.79977 43 ft 2 kts 294°
2026-05-07 15:43 -37.00553 174.79925 43 ft 12 kts 247°
2026-05-07 15:43 -37.00600 174.79786 43 ft 22 kts 247°
2026-05-07 15:43 -37.00700 174.79683 43 ft 16 kts 215°
2026-05-07 15:44 -37.00752 174.79573 43 ft 14 kts 252°
2026-05-07 15:44 -37.00778 174.79465 43 ft 12 kts 252°
2026-05-07 15:44 -37.00809 174.79347 42 ft 16 kts 252°
2026-05-07 15:44 -37.00849 174.79199 42 ft 18 kts 248°
2026-05-07 15:45 -37.00893 174.79059 42 ft 16 kts 250°
2026-05-07 15:45 -37.00928 174.78933 41 ft 14 kts 251°
2026-05-07 15:45 -37.00956 174.78824 43 ft 12 kts 252°
2026-05-07 15:45 -37.00980 174.78733 43 ft 10 kts 251°
2026-05-07 15:46 -37.01016 174.78597 43 ft 7 kts 251°
2026-05-07 15:46 -37.01037 174.78521 43 ft 12 kts 251°
2026-05-07 15:46 -37.01068 174.78406 40 ft 16 kts 251°
2026-05-07 15:47 -37.01110 174.78254 43 ft 21 kts 250°
2026-05-07 15:47 -37.01164 174.78070 43 ft 24 kts 249°
2026-05-07 15:47 -37.01226 174.77855 41 ft 28 kts 251°
2026-05-07 15:47 -37.01292 174.77612 43 ft 29 kts 251°
2026-05-07 15:48 -37.01354 174.77381 43 ft 27 kts 251°
2026-05-07 15:48 -37.01416 174.77179 41 ft 14 kts 250°
2026-05-07 15:48 -37.01435 174.77134 43 ft 4 kts 228°
2026-05-07 15:48 -37.01456 174.77118 40 ft 3 kts 206°
2026-05-07 15:49 -37.01475 174.77110 40 ft 3 kts 198°
2026-05-07 15:49 -37.01484 174.77106 42 ft 0 kts 198°
2026-05-07 15:53 -37.01485 174.77106 42 ft 2 kts 198°
2026-05-07 15:53 -37.01517 174.77095 39 ft 8 kts 192°
2026-05-07 15:54 -37.01586 174.77088 39 ft 10 kts 163°
2026-05-07 15:54 -37.01611 174.77142 39 ft 6 kts 89°
2026-05-07 15:54 -37.01602 174.77180 39 ft 5 kts 73°
2026-05-07 15:54 -37.01520 174.77479 41 ft 79 kts 70°
2026-05-07 15:55 -37.01357 174.78065 38 ft 134 kts 70°
2026-05-07 15:55 -37.00855 174.79927 330 ft 189 kts 72°
2026-05-07 15:55 -37.00461 174.81569 1062 ft 203 kts 68°
2026-05-07 15:55 -37.00076 174.83160 2411 ft 172 kts 67°
2026-05-07 15:56 -36.99755 174.84607 3552 ft 182 kts 70°
2026-05-07 15:56 -36.99539 174.85682 4040 ft 192 kts 70°
2026-05-07 15:56 -36.99183 174.87281 4981 ft 198 kts 68°
2026-05-07 15:56 -36.98666 174.89013 5512 ft 230 kts 64°
2026-05-07 15:57 -36.98013 174.91028 5826 ft 262 kts 65°
2026-05-07 15:57 -36.97400 174.93053 7181 ft 247 kts 66°
2026-05-07 15:57 -36.96790 174.95160 7683 ft 270 kts 68°
2026-05-07 15:57 -36.96136 174.97430 8409 ft 277 kts 67°
2026-05-07 15:58 -36.95591 174.99808 8940 ft 293 kts 81°
2026-05-07 15:58 -36.95755 175.02340 9866 ft 299 kts 105°
2026-05-07 15:58 -36.96834 175.04578 10622 ft 308 kts 136°
2026-05-07 15:58 -36.98640 175.06037 11341 ft 314 kts 156°
2026-05-07 15:59 -37.00702 175.06994 12110 ft 318 kts 165°
2026-05-07 15:59 -37.02903 175.07493 12624 ft 332 kts 180°
2026-05-07 15:59 -37.05232 175.06964 12764 ft 353 kts 207°
2026-05-07 15:59 -37.07248 175.05136 12917 ft 369 kts 232°
2026-05-07 16:00 -37.08575 175.02376 13428 ft 372 kts 251°
2026-05-07 16:00 -37.09405 174.99299 14146 ft 375 kts 257°
2026-05-07 16:00 -37.10111 174.96135 14853 ft 378 kts 258°
2026-05-07 16:00 -37.10832 174.92954 15567 ft 382 kts 257°
2026-05-07 16:01 -37.11605 174.89754 16279 ft 385 kts 256°
2026-05-07 16:01 -37.12414 174.86586 16962 ft 388 kts 255°
2026-05-07 16:01 -37.13282 174.83366 17632 ft 392 kts 253°
2026-05-07 16:01 -37.14270 174.80165 18289 ft 396 kts 251°
2026-05-07 16:02 -37.15343 174.76967 18865 ft 399 kts 250°
2026-05-07 16:02 -37.16450 174.73763 19419 ft 402 kts 250°
2026-05-07 16:02 -37.17572 174.70536 19956 ft 405 kts 250°
2026-05-07 16:02 -37.18699 174.67290 20479 ft 407 kts 250°
2026-05-07 16:03 -37.19828 174.64024 21086 ft 408 kts 250°
2026-05-07 16:03 -37.20957 174.60742 21646 ft 411 kts 250°
2026-05-07 16:03 -37.22090 174.57442 22201 ft 413 kts 250°
2026-05-07 16:03 -37.23227 174.54119 22763 ft 416 kts 250°
2026-05-07 16:04 -37.24371 174.50771 23321 ft 419 kts 250°
2026-05-07 16:04 -37.25522 174.47398 23859 ft 422 kts 250°
2026-05-07 16:04 -37.26678 174.44006 24331 ft 425 kts 250°
2026-05-07 16:04 -37.27846 174.40581 24818 ft 428 kts 250°
2026-05-07 16:05 -37.29026 174.37136 25298 ft 431 kts 250°
2026-05-07 16:05 -37.30220 174.33667 25790 ft 434 kts 250°
2026-05-07 16:05 -37.31425 174.30181 26273 ft 437 kts 250°
2026-05-07 16:05 -37.32646 174.26662 26786 ft 440 kts 250°
2026-05-07 16:06 -37.33881 174.23131 27270 ft 444 kts 250°
2026-05-07 16:06 -37.35134 174.19566 27707 ft 447 kts 250°
2026-05-07 16:06 -37.36383 174.16025 28160 ft 451 kts 250°
2026-05-07 16:06 -37.37662 174.12408 28614 ft 454 kts 250°
2026-05-07 16:07 -37.38951 174.08771 29073 ft 457 kts 250°
2026-05-07 16:07 -37.40253 174.05105 29503 ft 461 kts 250°
2026-05-07 16:07 -37.41565 174.01416 29932 ft 464 kts 250°
2026-05-07 16:07 -37.42888 173.97703 30306 ft 467 kts 250°
2026-05-07 16:08 -37.44220 173.93969 30679 ft 468 kts 250°
2026-05-07 16:08 -37.45552 173.90235 31170 ft 466 kts 250°
2026-05-07 16:08 -37.46874 173.86537 31751 ft 462 kts 250°
2026-05-07 16:08 -37.48191 173.82862 32260 ft 459 kts 250°
2026-05-07 16:09 -37.49504 173.79206 32751 ft 457 kts 250°
2026-05-07 16:09 -37.50810 173.75573 33214 ft 454 kts 250°
2026-05-07 16:09 -37.52112 173.71951 33666 ft 452 kts 250°
2026-05-07 16:09 -37.53407 173.68351 34105 ft 450 kts 250°
2026-05-07 16:10 -37.54698 173.64764 34457 ft 449 kts 250°
2026-05-07 16:10 -37.55987 173.61186 34807 ft 447 kts 250°
2026-05-07 16:10 -37.57273 173.57626 35160 ft 445 kts 250°
2026-05-07 16:10 -37.58551 173.54084 35370 ft 447 kts 250°
2026-05-07 16:11 -37.59837 173.50514 35425 ft 446 kts 250°
2026-05-07 16:11 -37.61121 173.46958 35707 ft 444 kts 250°
2026-05-07 16:11 -37.62405 173.43406 35878 ft 445 kts 250°
2026-05-07 16:12 -37.64949 173.36352 35920 ft 445 kts 250°
2026-05-07 16:12 -37.67509 173.29245 35913 ft 445 kts 250°
2026-05-07 16:13 -37.70065 173.22140 35911 ft 445 kts 250°
2026-05-07 16:13 -37.72623 173.15028 35919 ft 444 kts 250°
2026-05-07 16:14 -37.75173 173.07935 35929 ft 443 kts 250°
2026-05-07 16:14 -37.77736 173.00819 35910 ft 446 kts 250°
2026-05-07 16:15 -37.80310 172.93682 35889 ft 446 kts 250°
2026-05-07 16:15 -37.82887 172.86538 35897 ft 446 kts 250°
2026-05-07 16:16 -37.85453 172.79427 35889 ft 446 kts 250°
2026-05-07 16:16 -37.86744 172.75846 35880 ft 446 kts 250°